TimeMDT,TemperatureF,Dew PointF,Humidity,Sea Level PressureIn,VisibilityMPH,Wind Direction,Wind SpeedMPH,Gust SpeedMPH,PrecipitationIn,Events,Conditions,WindDirDegrees,DateUTC
12:00 AM,22,19,84,29.63,,WNW,21.9,,,,,300,2012-10-14 06:00:00
12:00 AM,22.1,19.2,89,29.63,-9999.0,WNW,21.9,-,N/A,,Unknown,300,2012-10-14 06:00:00
1:00 AM,22.5,19.4,88,29.63,-9999.0,WNW,21.9,-,N/A,,Unknown,290,2012-10-14 07:00:00
2:00 AM,22.5,19.2,87,29.62,-9999.0,WNW,24.2,-,N/A,,Unknown,290,2012-10-14 08:00:00
3:00 AM,22.6,19.0,86,29.63,-9999.0,WNW,24.2,-,N/A,,Unknown,290,2012-10-14 09:00:00
4:00 AM,22.1,18.1,85,29.63,-9999.0,WNW,23.0,-,N/A,,Unknown,290,2012-10-14 10:00:00
5:00 AM,21.9,17.6,83,29.64,-9999.0,WNW,21.9,-,N/A,,Unknown,300,2012-10-14 11:00:00
6:00 AM,22,19,82,29.64,,WNW,24.2,,,,,300,2012-10-14 12:00:00
6:00 AM,21.7,18.9,89,29.64,-9999.0,WNW,24.2,-,N/A,,Unknown,300,2012-10-14 12:00:00
7:00 AM,22.3,18.9,87,29.63,-9999.0,WNW,24.2,31.1,N/A,,Unknown,290,2012-10-14 13:00:00
8:00 AM,22.3,18.0,83,29.64,-9999.0,WNW,24.2,-,N/A,,Unknown,300,2012-10-14 14:00:00
9:00 AM,23.0,19.2,85,29.64,-9999.0,NW,21.9,-,N/A,,Unknown,310,2012-10-14 15:00:00
10:00 AM,25.2,20.5,82,29.64,-9999.0,WNW,20.7,-,N/A,,Unknown,300,2012-10-14 16:00:00
11:00 AM,25.7,21.4,84,29.64,-9999.0,WNW,18.4,-,N/A,,Unknown,290,2012-10-14 17:00:00
12:00 PM,27,23,79,29.64,,WNW,15.0,,,,,300,2012-10-14 18:00:00
12:00 PM,27.0,23.2,86,29.64,-9999.0,WNW,15.0,-,N/A,,Unknown,300,2012-10-14 18:00:00
1:00 PM,28.2,24.3,85,29.64,-9999.0,NW,8.1,-,N/A,,Unknown,320,2012-10-14 19:00:00
2:00 PM,27.3,24.1,88,29.65,-9999.0,NNW,8.1,-,N/A,,Unknown,330,2012-10-14 20:00:00
3:00 PM,26.6,23.5,88,29.67,-9999.0,NW,6.9,-,N/A,,Unknown,320,2012-10-14 21:00:00
4:00 PM,26.4,23.4,88,29.69,-9999.0,NNW,4.6,-,N/A,,Unknown,340,2012-10-14 22:00:00
5:00 PM,25.7,22.6,88,29.71,-9999.0,NW,13.8,-,N/A,,Unknown,320,2012-10-14 23:00:00
6:00 PM,24,19,75,29.74,,NNW,13.8,,,,,330,2012-10-15 00:00:00
6:00 PM,24.3,19.4,82,29.74,-9999.0,NNW,13.8,-,N/A,,Unknown,330,2012-10-15 00:00:00
7:00 PM,20.5,15.3,80,29.75,-9999.0,North,12.7,-,N/A,,Unknown,350,2012-10-15 01:00:00
8:00 PM,20.1,14.5,79,29.76,-9999.0,North,10.4,-,N/A,,Unknown,350,2012-10-15 02:00:00
9:00 PM,14.7,10.0,82,29.76,-9999.0,North,11.5,-,N/A,,Unknown,10,2012-10-15 03:00:00
10:00 PM,12.7,8.4,83,29.78,-9999.0,North,8.1,-,N/A,,Unknown,350,2012-10-15 04:00:00
11:00 PM,13.5,8.4,80,29.78,-9999.0,NNW,6.9,-,N/A,,Unknown,340,2012-10-15 05:00:00